Regional Weather Roundup
Issued by NWS Upton, NY

Home | Current Version | Previous Version | Text Only | Print | Product List | Glossary On
Versions: 1 2 3 4 5 6 7 8 9 10 11 12 13 14 15 16 17 18 19 20 21 22 23 24 25 26 27 28 29 30 31 32 33 34 35 36 37 38 39 40 41 42 43 44 45 46 47 48 49 50
000
ASUS41 KOKX 221009
RWROKX

REGIONAL WEATHER ROUNDUP
NATIONAL WEATHER SERVICE NEW YORK NY
600 AM EDT SAT JUL 22 2017

NOTE: "FAIR" INDICATES FEW OR NO CLOUDS BELOW 12,000 FEET WITH NO
SIGNIFICANT WEATHER AND/OR OBSTRUCTIONS TO VISIBILITY.

NYZ071-072-176-178-NJZ106-104-221100-
NEW YORK CITY METRO AREA

CITY           SKY/WX    TMP DP  RH WIND       PRES   REMARKS
Central Park   CLEAR     78  67  68 CALM      29.90R
Bronx Bot Gard   N/A     75  66  73 E2        29.89R
LaGuardia APRT MOCLDY    79  70  74 E3        29.86R
Kennedy INTL   MOCLDY    79  70  74 N6        29.87R
Breezy Point     N/A     79 N/A N/A N5          N/A
Newark/Liberty CLOUDY    78  67  68 N8        29.87R
Teterboro      CLEAR     76  68  76 NW3       29.86R
$$

NYZ177-179-078>081-221100-
LONG ISLAND NEW YORK

CITY           SKY/WX    TMP DP  RH WIND       PRES   REMARKS
Jones Beach      N/A     77 N/A N/A N3          N/A
Matinecock PT    N/A     75 N/A N/A E2          N/A
Farmingdale    CLEAR     77  69  76 N3        29.87R
MacArthur/ISP  MOCLDY    75  70  84 CALM      29.86R
Shirley        CLEAR     74  72  93 CALM      29.87R
Mt Sinai Harb    N/A    N/A N/A N/A N5          N/A
Westhampton      N/A    N/A N/A N/A MISG      29.88R
East Hampton   FOG       70  69  98 CALM      29.86R VSB 1/2
Montauk          N/A     72  71  97 CALM      29.87S
$$

NYZ052-065-067-221100-
HUDSON VALLEY

CITY           SKY/WX    TMP DP  RH WIND       PRES   REMARKS
White Plains   CLEAR     72  66  83 CALM      29.88R
Larchmont Harb   N/A     75 N/A N/A CALM        N/A
Croton O-T Hud   N/A     72 N/A N/A NE3         N/A
Newburgh       PTCLDY    68  66  94 CALM      29.90R
Montgomery     CLEAR     63  61  93 CALM      29.89R
Poughkeepsie   PTCLDY    65  63  93 CALM      29.88R
Albany         MOCLDY    67  60  78 SW6       29.88R
$$

NJZ001-105-106-008-010-013-015-019>022-104-221100-
NEW JERSEY

CITY           SKY/WX    TMP DP  RH WIND       PRES   REMARKS
Newark/Liberty CLOUDY    78  67  68 N8        29.87R
Teterboro      CLEAR     76  68  76 NW3       29.86R
Caldwell       CLEAR     73  67  81 CALM      29.89R
Somerville     PTCLDY    70  70 100 NW3       29.87R FOG
Linden         FAIR      78  65  65 CALM      29.88R
Perth Amboy      N/A     79 N/A N/A N1          N/A
Sussex         CLEAR     65  65 100 CALM      29.90R
Andover          N/A     68  66  93 CALM      29.91R
Trenton        CLEAR     75  71  87 N3        29.88R
Millville      CLOUDY    75  75 100 CALM      29.86S
Atlantic City  CLOUDY    76  74  93 CALM      29.87S
Wrightstown    CLEAR     73  71  93 CALM      29.86R
Toms River     MOCLDY    73  71  93 SW6       29.89R FOG
Belmar         CLEAR     75  71  87 NW3       29.88S
$$

PAZ047>061-062-071-221100-
EASTERN PENNSYLVANIA

CITY           SKY/WX    TMP DP  RH WIND       PRES   REMARKS
Philadelphia   MOCLDY    80  71  74 CALM      29.87R
Allentown      CLEAR     73  67  81 CALM      29.90R
Scranton       PTCLDY    68  66  93 E6        29.93R
$$

CTZ002-004>006-009-010-012-RIZ004-006-007-MAZ004-011-015-221100-
SOUTHERN NEW ENGLAND
 IN CT

CITY           SKY/WX    TMP DP  RH WIND       PRES   REMARKS
Bradley INTL   CLOUDY    67  60  78 NW3       29.87R
Hartford       CLEAR     69  59  70 CALM      29.86R
Danbury        CLEAR     67  65  93 CALM      29.91R
Wtrbury/Oxford CLEAR     68  55  64 N5        29.89R
Bridgeport     CLEAR     74  64  71 CALM      29.86R
Meriden        CLEAR     67  61  81 CALM      29.86R
New Haven      CLEAR     70  64  81 N3        29.86R
Chester        FAIR      72  61  68 CALM      29.87R
Groton         CLEAR     70  62  76 CALM      29.84S
Wilimantic     CLEAR     67  64  90 CALM      29.87R

 IN RI

CITY           SKY/WX    TMP DP  RH WIND       PRES   REMARKS
Providence     MOCLDY    72  64  76 NW5       29.85R
Block Island   CLOUDY    70  67  90 SW5       29.86S
Westerly       CLEAR     71  64  78 CALM      29.85S
 IN MA

CITY           SKY/WX    TMP DP  RH WIND       PRES   REMARKS
Boston         CLOUDY    75  58  55 W10       29.83R
Worcester      CLEAR     66  56  70 W6        29.89R
Westfield      CLEAR     63  60  90 CALM      29.87R
Provincetown   CLEAR     69  63  81 W6        29.83S
Nantucket      CLOUDY    70  69  97 W9        29.84R
$$

ANZ330-335-338-340-345-350-353-355-221100-
COASTAL MARINE OBSERVATIONS


STATION/POSITION TIME  SKY/WX   TEMP    WIND        PRES    VSBY  WAVE
                                AIR SEA DIR/SP/G                  HT/PER
                 (UTC)          (F)     (DEG/KT/KT) (MB)    (MI)  (FT/S)
NY HARB ENTRANCE 0850            77 75  290/  6/  6 1010.4          2/10
20 S FIRE ISLAND 0950            77 76  270/  6/  8 1010.6          2/ 6
GREAT SOUTH BAY  0930            79 82   20/  4/  6   N/A
23 SSW MONTAUK P 0850            73 75              1010.7          3/ 4
15 E BARNEGAT LI 0930               78                N/A           2/11
HUDSON CANYON    0950            80 79  230/ 10/ 12 1010.4          3/ 5
KINGS POINT      0930            77 76   60/  3/  3 1010.9
EXECUTION ROCKS  0945            76     150/  2/  2   N/A
CENTRAL LI SOUND NOT AVBL
EASTERN LI SOUND NOT AVBL
ROBBINS REEF     0930                   360/  6/  7 1011.8
$$


>>>>>>>>>>>>>>>>>>>>>>>>>>>> KEY <<<<<<<<<<<<<<<<<<<<<<<<<<<
>                                                          <
>     SKY/WX - Sky Condition/Present Weather               <
>     TMP    - Temperature in Fahrenheit                   <
>     DP     - Dew Point in Fahrenheit                     <
>     RH     - Relative Humidity in Percent                <
>     WIND   - Direction (from) and Speed in MPH           <
>     PRES   - Mean Sea Level Pressure (inches of Hg)      <
>     WCI    - Wind Chill Index                            <
>     VSB    - VISIBILITY IN MILES                         <
>     HX     - HEAT INDEX                                  <
>     TC     - TEMPERATURE IN CELSIUS                      <
>     VRB    - VARIABLE WIND DIRECTION                     <
>                                                          <
>>>>>>>>>>>>>>>>>>>>>>>>>>>> KEY <<<<<<<<<<<<<<<<<<<<<<<<<<<



USA.gov is the U.S. government's official web portal to all federal, state and local government web resources and services.